FW5910 Weather Reports


Display with metric or nautical units.
time (UTC)temp
F
wind
direction
speed
MPH
gust
MPH
rain 1hr
in
rain 24hr
in
rain mn
in
humidity
%
barometer
mb
20260506140608 36 285 0.0 1.0 0.00 0.00 0.00 80 1017.1
20260506140109 35 284 0.0 1.0 0.00 0.00 0.00 80 1016.9
20260506135607 35 277 0.0 1.0 0.00 0.00 0.00 82 1016.9
20260506135105 35 277 0.0 2.0 0.00 0.00 0.00 82 1017.1
20260506134602 34 317 0.0 2.0 0.00 0.00 0.00 83 1016.9
20260506134101 34 322 0.0 2.0 0.00 0.00 0.00 82 1016.9
20260506133555 33 232 0.0 0.0 0.00 0.00 0.00 84 1016.9
20260506133050 32 232 0.0 0.0 0.00 0.00 0.00 85 1017.1
20260506132544 32 232 0.0 0.0 0.00 0.00 0.00 85 1017.1
20260506132038 32 232 0.0 0.0 0.00 0.00 0.00 85 1016.9
20260506131531 33 221 0.0 0.0 0.00 0.00 0.00 84 1017.1
20260506131030 33 221 0.0 0.0 0.00 0.00 0.00 83 1016.9
20260506130530 33 222 0.0 0.0 0.00 0.00 0.00 83 1016.9
20260506130029 33 222 0.0 0.0 0.00 0.00 0.00 83 1016.9
20260506125529 33 221 0.0 0.0 0.00 0.00 0.00 84 1016.9
20260506125029 32 221 0.0 1.0 0.00 0.00 0.00 85 1016.9
20260506124530 32 221 0.0 0.0 0.00 0.00 0.00 84 1016.9
20260506124030 33 217 0.0 1.0 0.00 0.00 0.00 84 1016.9
20260506123529 32 209 0.0 1.0 0.00 0.00 0.00 84 1016.9
20260506123030 32 244 0.0 1.0 0.00 0.00 0.00 84 1016.9
20260506122529 32 244 0.0 1.0 0.00 0.00 0.00 83 1016.9
20260506121530 33 245 0.0 1.0 0.00 0.00 0.00 82 1016.9
20260506121029 33 245 0.0 1.0 0.00 0.00 0.00 82 1016.9
20260506120531 33 238 0.0 1.0 0.00 0.00 0.00 81 1017.1
20260506120029 34 242 0.0 1.0 0.00 0.00 0.00 80 1017.1
20260506115032 34 319 0.0 2.0 0.00 0.00 0.00 80 1016.9
20260506114536 34 319 0.0 2.0 0.00 0.00 0.00 80 1016.9
20260506114033 34 254 0.0 1.0 0.00 0.00 0.00 79 1016.9
20260506113530 34 329 0.0 1.0 0.00 0.00 0.00 79 1016.9
20260506113030 34 9 0.0 1.0 0.00 0.00 0.00 79 1017.1
20260506112529 35 67 0.0 1.0 0.00 0.00 0.00 77 1017.1
20260506112028 35 266 0.0 1.0 0.00 0.00 0.00 77 1017.1
20260506111531 35 333 0.0 1.0 0.00 0.00 0.00 78 1016.9
20260506111030 35 328 0.0 1.0 0.00 0.00 0.00 76 1016.9
20260506110030 35 302 0.0 1.0 0.00 0.00 0.00 77 1016.9
20260506105529 36 279 0.0 1.0 0.00 0.00 0.00 77 1017.1
20260506105030 36 279 0.0 1.0 0.00 0.00 0.00 76 1016.9
20260506104033 36 255 0.0 1.0 0.00 0.00 0.00 75 1016.9
20260506103532 36 267 0.0 1.0 0.00 0.00 0.00 76 1016.8
20260506103033 37 270 0.0 1.0 0.00 0.00 0.00 74 1016.8
20260506102532 37 254 0.0 1.0 0.00 0.00 0.00 73 1016.8
20260506102034 37 346 0.0 1.0 0.00 0.00 0.00 74 1016.8
20260506101537 37 298 0.0 2.0 0.00 0.00 0.00 73 1016.9
20260506101032 37 302 1.0 3.0 0.00 0.00 0.00 74 1016.8
20260506100529 37 330 1.0 3.0 0.00 0.00 0.00 73 1016.9
20260506100029 37 44 1.0 2.0 0.00 0.00 0.00 75 1016.7
20260506095529 37 329 1.0 4.0 0.00 0.00 0.00 74 1016.9
20260506094529 37 100 1.0 2.0 0.00 0.00 0.00 74 1016.8
20260506094030 37 329 0.0 2.0 0.00 0.00 0.00 75 1016.9
20260506093529 37 32 0.0 2.0 0.00 0.00 0.00 75 1016.9
20260506093029 37 295 0.0 1.0 0.00 0.00 0.00 79 1016.9
20260506092529 37 23 0.0 1.0 0.00 0.00 0.00 79 1017.1
20260506091531 37 46 0.0 2.0 0.00 0.00 0.00 78 1016.9
20260506091029 37 48 0.0 2.0 0.00 0.00 0.00 76 1017.1
20260506090532 36 42 0.0 2.0 0.00 0.00 0.00 75 1017.1
20260506090033 36 232 0.0 2.0 0.00 0.00 0.00 75 1017.1
20260506085532 36 304 0.0 2.0 0.00 0.00 0.00 73 1017.1
20260506085023 36 223 0.0 1.0 0.00 0.00 0.00 72 1017.1
20260506084014 37 246 0.0 0.0 0.00 0.00 0.00 69 1017.1
20260506083511 37 246 0.0 1.0 0.00 0.00 0.00 70 1016.9
20260506083012 37 246 0.0 1.0 0.00 0.00 0.00 71 1017.1
20260506082510 37 241 0.0 2.0 0.00 0.00 0.00 72 1017.1
20260506081509 37 182 0.0 1.0 0.00 0.00 0.00 72 1017.2
20260506081009 37 182 0.0 2.0 0.00 0.00 0.00 72 1017.1
20260506080509 37 213 0.0 2.0 0.00 0.00 0.00 75 1017.2
20260506073503 37 253 1.0 2.0 0.00 0.00 0.00 75 1017.3
20260506073004 39 229 0.0 2.0 0.00 0.00 0.00 72 1017.2
20260506071502 40 93 0.0 1.0 0.00 0.00 0.00 72 1017.3
20260506071001 40 93 0.0 2.0 0.00 0.00 0.00 71 1017.3
20260506062431 42 165 0.0 0.0 0.00 0.00 0.00 62 1017.1
20260506061930 42 165 0.0 0.0 0.00 0.00 0.00 62 1016.9
20260506061431 42 165 0.0 0.0 0.00 0.00 0.00 65 1017.1
20260506060929 43 165 0.0 1.0 0.00 0.00 0.00 68 1017.1
20260506060430 43 165 0.0 1.0 0.00 0.00 0.00 61 1017.1
20260506050916 46 327 0.0 1.0 0.00 0.00 0.00 50 1016.9
20260506050409 47 327 0.0 1.0 0.00 0.00 0.00 50 1016.9
20260506044405 49 219 1.0 4.0 0.00 0.00 0.00 44 1016.7
20260506043901 49 218 1.0 3.0 0.00 0.00 0.00 44 1016.8
20260506042902 51 52 3.0 10.0 0.00 0.00 0.00 43 1016.6
20260506042401 51 69 5.0 12.0 0.00 0.00 0.00 44 1016.6
20260506041901 51 53 6.0 14.0 0.00 0.00 0.00 43 1016.6
20260506041402 52 70 6.0 14.0 0.00 0.00 0.00 42 1016.5
20260506040401 52 55 7.0 13.0 0.00 0.00 0.00 44 1016.4
20260506035901 51 53 6.0 9.0 0.00 0.00 0.00 41 1016.5
20260506035401 51 93 3.0 9.0 0.00 0.00 0.00 44 1016.5
20260506034905 51 74 1.0 8.0 0.00 0.00 0.00 47 1016.5
20260506034402 51 18 2.0 8.0 0.00 0.00 0.00 43 1016.4
20260506033901 52 59 5.0 13.0 0.00 0.00 0.00 43 1016.4
20260506033402 52 75 5.0 13.0 0.00 0.00 0.00 41 1016.4
20260506031847 52 300 10.0 17.0 0.00 0.00 0.00 40 1016.2
20260506031340 53 88 12.0 17.0 0.00 0.00 0.00 40 1016.2
20260506030834 53 69 10.0 17.0 0.00 0.00 0.00 42 1016.2
20260506030334 53 73 10.0 18.0 0.00 0.00 0.00 42 1016.2
20260506025834 53 62 11.0 18.0 0.00 0.00 0.00 38 1016.1
20260506025334 53 81 12.0 20.0 0.00 0.00 0.00 40 1016.0
20260506024834 53 83 12.0 20.0 0.00 0.00 0.00 38 1016.0
20260506024334 53 74 11.0 15.0 0.00 0.00 0.00 38 1016.0
20260506023834 53 69 9.0 14.0 0.00 0.00 0.00 37 1016.0
20260506023334 53 57 9.0 14.0 0.00 0.00 0.00 41 1016.0
20260506022835 53 97 10.0 18.0 0.00 0.00 0.00 37 1016.0
20260506022333 53 92 10.0 18.0 0.00 0.00 0.00 37 1016.0
20260506021835 53 73 10.0 18.0 0.00 0.00 0.00 38 1015.7
20260506021334 53 28 10.0 20.0 0.00 0.00 0.00 38 1015.9
20260506020834 53 96 11.0 20.0 0.00 0.00 0.00 38 1015.9
20260506020334 53 14 11.0 17.0 0.00 0.00 0.00 37 1015.7
20260506015834 54 69 12.0 20.0 0.00 0.00 0.00 38 1015.7
20260506015337 54 91 11.0 20.0 0.00 0.00 0.00 38 1015.6
20260506014836 54 74 9.0 17.0 0.00 0.00 0.00 38 1015.6
20260506014336 54 59 10.0 16.0 0.00 0.00 0.00 39 1015.6
20260506013835 54 76 10.0 16.0 0.00 0.00 0.00 38 1015.5
20260506013335 54 84 11.0 19.0 0.00 0.00 0.00 38 1015.5
20260506012834 54 336 12.0 20.0 0.00 0.00 0.00 37 1015.6
20260506011833 54 101 12.0 20.0 0.00 0.00 0.00 37 1015.6
20260506011334 54 86 13.0 21.0 0.00 0.00 0.00 38 1015.6
20260506010834 54 88 14.0 21.0 0.00 0.00 0.00 38 1015.6
20260506010334 54 67 15.0 23.0 0.00 0.00 0.00 36 1015.6
20260506005834 54 17 16.0 24.0 0.00 0.00 0.00 36 1015.6
20260506005335 54 276 17.0 26.0 0.00 0.00 0.00 37 1015.9
20260506004834 54 336 17.0 26.0 0.00 0.00 0.00 36 1015.7
20260506004335 54 79 16.0 23.0 0.00 0.00 0.00 35 1015.6
20260506003833 54 80 15.0 24.0 0.00 0.00 0.00 36 1015.7
20260506002335 54 86 14.0 24.0 0.00 0.00 0.00 35 1015.9
20260506001833 54 33 15.0 23.0 0.00 0.00 0.00 39 1015.7
20260506001334 54 91 16.0 24.0 0.00 0.00 0.00 34 1015.9
20260506000833 54 79 16.0 24.0 0.00 0.00 0.00 35 1015.4
20260506000335 54 94 15.0 22.0 0.00 0.00 0.00 38 1015.7
20260505235336 55 71 14.0 23.0 0.00 0.00 0.00 36 1015.7
20260505234838 54 74 15.0 24.0 0.00 0.00 0.00 36 1015.6
20260505234332 54 66 17.0 24.0 0.00 0.00 0.00 38 1015.5
20260505233831 54 81 19.0 33.0 0.00 0.00 0.00 36 1016.0
20260505233332 54 49 19.0 33.0 0.00 0.00 0.00 36 1015.9
20260505232830 55 28 16.0 28.0 0.00 0.00 0.00 35 1016.0
20260505232330 55 77 16.0 28.0 0.00 0.00 0.00 37 1015.7
20260505231331 54 74 22.0 30.0 0.00 0.00 0.00 36 1015.6
20260505230831 54 68 23.0 29.0 0.00 0.00 0.00 35 1016.1
20260505230331 54 69 21.0 29.0 0.00 0.00 0.00 36 1015.9
20260505225832 54 96 17.0 29.0 0.00 0.00 0.00 36 1016.6
20260505225331 55 65 14.0 24.0 0.00 0.00 0.00 35 1015.9
20260505224832 55 78 13.0 24.0 0.00 0.00 0.00 35 1015.9
20260505224331 55 90 13.0 23.0 0.00 0.00 0.00 36 1015.9
20260505223330 55 47 17.0 28.0 0.00 0.00 0.00 34 1015.9
20260505222330 56 126 9.0 23.0 0.00 0.00 0.00 32 1016.3
20260505221330 59 168 4.0 12.0 0.00 0.00 0.00 31 1015.6
20260505220329 59 309 3.0 11.0 0.00 0.00 0.00 30 1015.9
20260505215830 60 11 3.0 12.0 0.00 0.00 0.00 31 1015.7
20260505215330 59 117 5.0 13.0 0.00 0.00 0.00 31 1016.1
20260505214830 59 84 5.0 14.0 0.00 0.00 0.00 30 1015.9
20260505214331 59 34 8.0 18.0 0.00 0.00 0.00 30 1016.0
20260505213830 58 304 8.0 18.0 0.00 0.00 0.00 32 1016.2
20260505213330 59 76 6.0 13.0 0.00 0.00 0.00 30 1016.0
20260505212831 59 84 4.0 13.0 0.00 0.00 0.00 27 1015.9
20260505212330 59 59 4.0 10.0 0.00 0.00 0.00 30 1016.0
20260505211830 59 347 8.0 14.0 0.00 0.00 0.00 29 1016.0
20260505211329 58 138 10.0 18.0 0.00 0.00 0.00 34 1016.1
20260505210830 58 59 10.0 18.0 0.00 0.00 0.00 32 1016.1
20260505210331 58 66 10.0 17.0 0.00 0.00 0.00 35 1016.3
20260505205329 57 76 6.0 17.0 0.00 0.00 0.00 31 1016.4
20260505204829 57 55 5.0 13.0 0.00 0.00 0.00 36 1016.2
20260505204329 58 35 4.0 13.0 0.00 0.00 0.00 31 1016.3
20260505203829 60 19 3.0 10.0 0.00 0.00 0.00 28 1016.2
20260505203329 59 58 5.0 12.0 0.00 0.00 0.00 35 1016.2
20260505202829 58 257 5.0 12.0 0.00 0.00 0.00 31 1016.2
20260505201830 58 68 5.0 12.0 0.00 0.00 0.00 30 1016.3
20260505201330 59 132 4.0 10.0 0.00 0.00 0.00 30 1016.2
20260505200829 58 48 4.0 9.0 0.00 0.00 0.00 37 1016.2
20260505200329 58 74 4.0 9.0 0.00 0.00 0.00 34 1016.3
20260505195830 59 82 5.0 12.0 0.00 0.00 0.00 31 1016.3
20260505195335 58 340 6.0 13.0 0.00 0.00 0.00 33 1016.4
20260505194832 59 68 4.0 13.0 0.00 0.00 0.00 32 1016.3
20260505194333 60 45 3.0 8.0 0.00 0.00 0.00 36 1016.2
20260505193832 60 321 3.0 9.0 0.00 0.00 0.00 30 1016.2
20260505193323 60 47 2.0 11.0 0.00 0.00 0.00 34 1016.3
20260505192817 59 17 3.0 11.0 0.00 0.00 0.00 34 1016.3
20260505192316 58 123 2.0 8.0 0.00 0.00 0.00 35 1016.4
20260505191816 58 71 2.0 8.0 0.00 0.00 0.00 35 1016.4
20260505191314 59 103 2.0 8.0 0.00 0.00 0.00 35 1016.3
20260505190815 60 71 2.0 8.0 0.00 0.00 0.00 37 1016.3
20260505185813 58 336 3.0 7.0 0.00 0.00 0.00 37 1016.3
20260505185311 57 68 4.0 8.0 0.00 0.00 0.00 41 1016.5
20260505184811 57 40 5.0 10.0 0.00 0.00 0.00 39 1016.4
20260505184311 57 52 6.0 12.0 0.00 0.00 0.00 38 1016.5
20260505183310 56 67 3.0 9.0 0.00 0.00 0.00 41 1016.4
20260505182808 56 149 3.0 8.0 0.00 0.00 0.00 39 1016.4
20260505181308 57 90 2.0 17.0 0.00 0.00 0.00 39 1016.4
20260505180805 57 96 1.0 4.0 0.00 0.00 0.00 37 1016.3
20260505180302 56 107 3.0 6.0 0.00 0.00 0.00 38 1016.3
20260505175801 56 71 3.0 6.0 0.00 0.00 0.00 36 1016.4
20260505174801 57 68 1.0 4.0 0.00 0.00 0.00 36 1016.4
20260505174302 55 59 2.0 4.0 0.00 0.00 0.00 39 1016.4
20260505173802 56 329 2.0 4.0 0.00 0.00 0.00 36 1016.5
20260505173302 57 61 1.0 4.0 0.00 0.00 0.00 41 1016.4
20260505172801 58 85 1.0 6.0 0.00 0.00 0.00 37 1016.3
20260505172305 56 211 1.0 6.0 0.00 0.00 0.00 36 1016.4
20260505171801 55 187 0.0 3.0 0.00 0.00 0.00 41 1016.5
20260505171303 55 200 1.0 6.0 0.00 0.00 0.00 40 1016.5
20260505170800 55 291 1.0 6.0 0.00 0.00 0.00 40 1016.4
20260505170301 56 350 1.0 4.0 0.00 0.00 0.00 40 1016.5
20260505165802 56 26 2.0 5.0 0.00 0.00 0.00 39 1016.4
20260505164802 56 42 2.0 6.0 0.00 0.00 0.00 41 1016.5
20260505164301 57 37 1.0 5.0 0.00 0.00 0.00 38 1016.4
20260505163803 57 338 1.0 4.0 0.00 0.00 0.00 36 1016.5
20260505163302 57 331 0.0 2.0 0.00 0.00 0.00 39 1016.3
20260505162301 56 29 1.0 4.0 0.00 0.00 0.00 37 1016.4
20260505161801 56 109 1.0 3.0 0.00 0.00 0.00 36 1016.3
20260505161302 56 54 1.0 3.0 0.00 0.00 0.00 39 1016.3
20260505160301 56 71 1.0 4.0 0.00 0.00 0.00 38 1016.3
20260505153301 53 277 0.0 0.0 0.00 0.00 0.00 47 1016.4
20260505152802 52 278 0.0 1.0 0.00 0.00 0.00 47 1016.4
20260505152304 52 258 0.0 2.0 0.00 0.00 0.00 48 1016.4
20260505151302 51 312 0.0 1.0 0.00 0.00 0.00 53 1016.5
20260505150801 50 304 0.0 3.0 0.00 0.00 0.00 52 1016.5
20260505150302 49 309 0.0 3.0 0.00 0.00 0.00 50 1016.4